STARLINK-33726, 63437

Orbit data source: Space-Track

STARLINK-33726, 63437 is a payload satellite owned by SpaceX/Seattle (US) in LEO that was launched on Fri, 04 Apr 2025 UTC via an FALCON 9 launch vehicle from the Air Force Western Test Range (AFWTR). Payload-class satellites include a variety of spacecraft equipped with specific instruments for various scientific and technological missions. These include communications satellites like Starlink; space stations such as the ISS; scientific satellites like the Hubble; Earth observation satellites from companies like Planet Labs, Umbra, and HawkEye 360; GPS; miniature CubeSats for education and research; and military/defense satellites.

Loading next visibility...
Identifier
63437, 2025-069E
Orbit
LEO
Country
Flag of USUS
Related business
Manufacturer
SpaceX/Seattle
Mission
Operational Commercial Communications
Bus & Motor
STARLINK V2MO, Unknown motor
Mass
575 kg wet, ~530 kg dry
Launch date (UTC)
2025-04-04 (8 months ago)
Launch vehicle
FALCON 9
Launch site
Air Force Western Test Range (AFWTR)
Object type
Payload
Rocket body
Debris
Shape & HBR
Box + 2 Pan, 17.7 m
Radar Cross Section
36.964 m², Large (>1 m²)

Expand to show TLE details & history
Last TLE update: 18 hours ago

TLE from 18 hours ago
0 STARLINK-33726
1 63437U 25069E   25348.84817864  .00022275  00000-0  76207-3 0  9996
2 63437  53.1586 176.6661 0001174  86.8909 273.2226 15.30194245 40360
Epoch: 2025-12-14T20:21Z
TLE epoch observation values (Epoch: 2025-12-14T20:21:22.634Z)
Latitude
-0.00003°
Longitude
147.56656°
Altitude
476.087 km
Speed
7.629 km/s
True Right ascension
11h 46m 39s
True Declination
0° 00' 00"
Sunlit
Object was in daylight at epoch
Visualization orbit readout
Latitude
Unknown
Longitude
Unknown
Altitude
Unknown
Speed
Unknown
Apparent Right ascension
Unknown
Apparent Declination
Unknown
Sunlit
N/A
Visualization observer readout
Local Sidereal Time
13:23:45
Azimuth
Unknown
Elevation
Unknown
Doppler factor
Unknown
Orbital elements
Apogee altitude
476.294 km
Perigee altitude
474.684 km
Semi-major axis
6,853.626 km
Eccentricity
0.00012
Inclination
53.1586°
RAAN
176.6661°
Arg. of periapsis
86.8909°
True anomaly
273.20917°
Mean anomaly
273.2226°
Eccentric anomaly
273.21588°
Mean motion
3.82527 °/min
Orbital period
94.11 mins
BSTAR
0.00076207
Loading maneuver chart data...
Computing Atmospheric mass density...
Loading historical data...
Loading historical data...
Loading historical data...
Loading historical data...
Loading historical data...
Loading historical data...
Loading historical data...

Documentation

Showing up to 5 results
|